TimeEDT,TemperatureF,Dew PointF,Humidity,Sea Level PressureIn,VisibilityMPH,Wind Direction,Wind SpeedMPH,Gust SpeedMPH,PrecipitationIn,Events,Conditions,WindDirDegrees,DateUTC
12:53 AM,66.0,59.0,78,30.20,10.0,Calm,Calm,-,N/A,,Clear,0,2013-09-18 04:53:00
1:53 AM,64.0,57.9,80,30.20,10.0,Calm,Calm,-,N/A,,Clear,0,2013-09-18 05:53:00
2:53 AM,64.0,57.0,78,30.19,10.0,ENE,3.5,-,N/A,,Clear,70,2013-09-18 06:53:00
3:53 AM,64.0,57.0,78,30.19,10.0,ENE,5.8,-,N/A,,Clear,60,2013-09-18 07:53:00
4:53 AM,63.0,57.0,81,30.19,10.0,Calm,Calm,-,N/A,,Clear,0,2013-09-18 08:53:00
5:53 AM,62.1,57.0,84,30.20,10.0,NE,4.6,-,N/A,,Clear,50,2013-09-18 09:53:00
6:53 AM,61.0,55.9,83,30.22,10.0,NE,4.6,-,N/A,,Scattered Clouds,50,2013-09-18 10:53:00
7:53 AM,62.1,55.9,80,30.23,10.0,NE,4.6,-,N/A,,Clear,40,2013-09-18 11:53:00
8:53 AM,66.0,55.0,68,30.24,10.0,NE,6.9,-,N/A,,Clear,40,2013-09-18 12:53:00
9:53 AM,69.1,55.0,61,30.25,10.0,NE,6.9,-,N/A,,Clear,50,2013-09-18 13:53:00
10:53 AM,72.0,55.9,57,30.25,10.0,ENE,5.8,-,N/A,,Scattered Clouds,70,2013-09-18 14:53:00
11:53 AM,75.0,55.9,51,30.24,10.0,Calm,Calm,-,N/A,,Scattered Clouds,0,2013-09-18 15:53:00
12:53 PM,79.0,57.0,47,30.23,10.0,NE,10.4,-,0.01,,Partly Cloudy,40,2013-09-18 16:53:00
1:53 PM,79.0,55.9,45,30.20,10.0,East,5.8,-,N/A,,Scattered Clouds,100,2013-09-18 17:53:00
2:53 PM,81.0,55.0,41,30.18,10.0,Variable,4.6,-,N/A,,Clear,0,2013-09-18 18:53:00
3:53 PM,79.0,55.0,44,30.16,10.0,Variable,6.9,-,N/A,,Scattered Clouds,0,2013-09-18 19:53:00
4:53 PM,81.0,55.9,42,30.15,10.0,Calm,Calm,-,N/A,,Clear,0,2013-09-18 20:53:00
5:53 PM,81.0,57.0,44,30.14,10.0,North,4.6,-,N/A,,Clear,10,2013-09-18 21:53:00
6:53 PM,79.0,57.9,48,30.13,10.0,NE,3.5,-,N/A,,Clear,50,2013-09-18 22:53:00
7:53 PM,71.1,59.0,66,30.14,10.0,NNE,4.6,-,N/A,,Clear,30,2013-09-18 23:53:00
8:53 PM,64.9,60.1,84,30.16,10.0,Calm,Calm,-,N/A,,Clear,0,2013-09-19 00:53:00
9:53 PM,62.1,60.1,93,30.17,10.0,Calm,Calm,-,N/A,,Clear,0,2013-09-19 01:53:00
10:53 PM,60.1,59.0,96,30.18,10.0,Calm,Calm,-,N/A,,Clear,0,2013-09-19 02:53:00
11:53 PM,57.9,57.9,100,30.18,10.0,Calm,Calm,-,0.01,,Clear,0,2013-09-19 03:53:00